Humboldt, Iowa, United States (50548)
Lat: 42.72N, Lon: 94.22W
Wx Zone: IAZ024
Local Info
Past Weather Observations for Tuesday, May 19, 2015

NOTE: This archive is for the closest National Weather Service station to Humboldt. Information may differ from the station used for current weather conditions.

Click here for Long-term Archive

Time Weather Temperature Dewpoint Humidity Pressure Winds Precip Visibility
23:55
Overcast
37°F / 3°C 28°F / -2°C 70% 30.33 in
(1027 mb)
NNW 9.2 mph
(NNW 15 kph)
- 10SM
23:15
Overcast
39°F / 4°C 28°F / -2°C 65% 30.33 in
(1027 mb)
NNW 12.7 mph
(NNW 20 kph)
- 10SM
22:55
Overcast
39°F / 4°C 30°F / -1°C 70% 30.3 in
(1026 mb)
NNW 9.2 mph
(NNW 15 kph)
- 10SM
22:35
Overcast
41°F / 5°C 30°F / -1°C 66% 30.3 in
(1026 mb)
NNW 9.2 mph
(NNW 15 kph)
- 10SM
22:15
Overcast
41°F / 5°C 30°F / -1°C 66% 30.3 in
(1026 mb)
NW 5.8 mph
(NW 9 kph)
- 10SM
21:55
Overcast
41°F / 5°C 30°F / -1°C 66% 30.3 in
(1026 mb)
NNW 8.1 mph
(NNW 13 kph)
- 10SM
21:35
Overcast
41°F / 5°C 30°F / -1°C 66% 30.3 in
(1026 mb)
NW 6.9 mph
(NW 11 kph)
- 10SM
21:15
Overcast
41°F / 5°C 30°F / -1°C 66% 30.3 in
(1026 mb)
NW 9.2 mph
(NW 15 kph)
- 10SM
20:55
Overcast
43°F / 6°C 30°F / -1°C 61% 30.3 in
(1026 mb)
NW 11.5 mph
(NW 19 kph)
- 10SM
20:35
Overcast
43°F / 6°C 30°F / -1°C 61% 30.3 in
(1026 mb)
NW 8.1 mph
(NW 13 kph)
- 10SM
20:15
Overcast
43°F / 6°C 30°F / -1°C 61% 30.3 in
(1026 mb)
NW 8.1 mph
(NW 13 kph)
- 10SM
19:55
Overcast
43°F / 6°C 30°F / -1°C 61% 30.3 in
(1026 mb)
WNW 11.5 mph
(WNW 19 kph)
- 10SM
19:35
Overcast
43°F / 6°C 30°F / -1°C 61% 30.27 in
(1025 mb)
NW 10.4 mph
(NW 17 kph)
- 10SM
19:15
Overcast
43°F / 6°C 30°F / -1°C 61% 30.27 in
(1025 mb)
NW 11.5 mph
(NW 19 kph)
- 10SM
18:55
Overcast
43°F / 6°C 32°F / 0°C 66% 30.27 in
(1025 mb)
NW 12.7 mph
(NW 20 kph)
- 10SM
18:35
Overcast
43°F / 6°C 30°F / -1°C 61% 30.27 in
(1025 mb)
NW 12.7 mph
(NW 20 kph)
- 10SM
18:15
Overcast
43°F / 6°C 32°F / 0°C 66% 30.27 in
(1025 mb)
WNW 8.1 mph
(WNW 13 kph)
- 10SM
17:55
Overcast
43°F / 6°C 30°F / -1°C 61% 30.27 in
(1025 mb)
NW 11.5 mph
(NW 19 kph)
- 10SM
17:35
Overcast
43°F / 6°C 30°F / -1°C 61% 30.27 in
(1025 mb)
NW 12.7 mph
(NW 20 kph)
- 10SM
17:15
Overcast
43°F / 6°C 30°F / -1°C 61% 30.27 in
(1025 mb)
NW 12.7 mph
(NW 20 kph)
- 10SM
16:55
Overcast
43°F / 6°C 32°F / 0°C 66% 30.27 in
(1025 mb)
NW 16.1 mph
(NW 26 kph)
- 10SM
16:35
Overcast
45°F / 7°C 32°F / 0°C 61% 30.27 in
(1025 mb)
NW 15 mph
(NW 24 kph)
- 10SM
16:15
Overcast
45°F / 7°C 32°F / 0°C 61% 30.27 in
(1025 mb)
NW 15 mph
(NW 24 kph)
- 10SM
15:55
Overcast
45°F / 7°C 32°F / 0°C 61% 30.27 in
(1025 mb)
WNW 15 mph
(WNW 24 kph)
- 10SM
15:35
Overcast
45°F / 7°C 34°F / 1°C 66% 30.27 in
(1025 mb)
W 16.1 mph
(W 26 kph)
- 10SM
15:15
Overcast
45°F / 7°C 34°F / 1°C 66% 30.24 in
(1024 mb)
WNW 16.1 mph
(WNW 26 kph)
- 10SM
14:55
Overcast
45°F / 7°C 34°F / 1°C 66% 30.24 in
(1024 mb)
WNW 17.3 mph
(WNW 28 kph)
- 10SM
14:35
Overcast
45°F / 7°C 34°F / 1°C 66% 30.24 in
(1024 mb)
NW 15 mph
(NW 24 kph)
- 10SM
14:15
Overcast
45°F / 7°C 34°F / 1°C 66% 30.24 in
(1024 mb)
WNW 13.8 mph
(WNW 22 kph)
- 10SM
13:55
Overcast
45°F / 7°C 34°F / 1°C 66% 30.24 in
(1024 mb)
WNW 9.2 mph
(WNW 15 kph)
- 10SM
13:35
Overcast
45°F / 7°C 34°F / 1°C 66% 30.24 in
(1024 mb)
NW 16.1 mph
(NW 26 kph)
- 10SM
13:15
Overcast
45°F / 7°C 34°F / 1°C 66% 30.24 in
(1024 mb)
WNW 15 mph
(WNW 24 kph)
- 10SM
12:55
Overcast
45°F / 7°C 34°F / 1°C 66% 30.24 in
(1024 mb)
NW 16.1 mph
(NW 26 kph)
- 10SM
12:35
Overcast
45°F / 7°C 34°F / 1°C 66% 30.24 in
(1024 mb)
WNW 18.4 mph
(WNW 30 kph)
- 10SM
12:15
Overcast
45°F / 7°C 34°F / 1°C 66% 30.21 in
(1023 mb)
W 15 mph
(W 24 kph)
- 10SM
11:55
Overcast
45°F / 7°C 32°F / 0°C 61% 30.21 in
(1023 mb)
W 13.8 mph
(W 22 kph)
- 10SM
11:35
Overcast
45°F / 7°C 34°F / 1°C 66% 30.21 in
(1023 mb)
WNW 18.4 mph
(WNW 30 kph)
- 10SM
10:55
Overcast
45°F / 7°C 32°F / 0°C 61% 30.21 in
(1023 mb)
W 15 mph
(W 24 kph)
- 10SM
10:15
Overcast
43°F / 6°C 32°F / 0°C 66% 30.21 in
(1023 mb)
W 13.8 mph
(W 22 kph)
- 10SM
09:55
Overcast
43°F / 6°C 30°F / -1°C 61% 30.21 in
(1023 mb)
W 15 mph
(W 24 kph)
- 10SM
09:35
Overcast
43°F / 6°C 30°F / -1°C 61% 30.18 in
(1022 mb)
W 13.8 mph
(W 22 kph)
- 10SM
09:15
Overcast
43°F / 6°C 30°F / -1°C 61% 30.18 in
(1022 mb)
SSW 16.1 mph
(SSW 26 kph)
- 10SM
08:55
Overcast
43°F / 6°C 30°F / -1°C 61% 30.18 in
(1022 mb)
W 15 mph
(W 24 kph)
- 10SM
08:35
Overcast
43°F / 6°C 30°F / -1°C 61% 30.18 in
(1022 mb)
W 16.1 mph
(W 26 kph)
- 10SM
08:15
Overcast
43°F / 6°C 30°F / -1°C 61% 30.18 in
(1022 mb)
WNW 12.7 mph
(WNW 20 kph)
- 10SM
07:55
Overcast
41°F / 5°C 30°F / -1°C 66% 30.15 in
(1021 mb)
W 11.5 mph
(W 19 kph)
- 10SM
07:35
Overcast
43°F / 6°C 30°F / -1°C 61% 30.15 in
(1021 mb)
W 15 mph
(W 24 kph)
- 10SM
07:15
Overcast
43°F / 6°C 30°F / -1°C 61% 30.15 in
(1021 mb)
W 12.7 mph
(W 20 kph)
- 10SM
06:55
Overcast
43°F / 6°C 32°F / 0°C 66% 30.12 in
(1020 mb)
W 15 mph
(W 24 kph)
- 10SM
06:35
Overcast
43°F / 6°C 32°F / 0°C 66% 30.12 in
(1020 mb)
WNW 12.7 mph
(WNW 20 kph)
- 10SM
06:15
Overcast
43°F / 6°C 32°F / 0°C 66% 30.12 in
(1020 mb)
W 12.7 mph
(W 20 kph)
- 10SM
05:55
Overcast
43°F / 6°C 32°F / 0°C 66% 30.12 in
(1020 mb)
W 13.8 mph
(W 22 kph)
- 10SM
05:35
Overcast
43°F / 6°C 34°F / 1°C 71% 30.09 in
(1019 mb)
W 15 mph
(W 24 kph)
- 10SM
05:15
Mostly Cloudy
43°F / 6°C 34°F / 1°C 71% 30.09 in
(1019 mb)
W 12.7 mph
(W 20 kph)
- 10SM
04:55
Overcast
43°F / 6°C 34°F / 1°C 71% 30.09 in
(1019 mb)
W 13.8 mph
(W 22 kph)
- 10SM
04:35
Overcast
43°F / 6°C 34°F / 1°C 71% 30.06 in
(1018 mb)
W 11.5 mph
(W 19 kph)
- 10SM
04:15
Overcast
43°F / 6°C 34°F / 1°C 71% 30.06 in
(1018 mb)
W 11.5 mph
(W 19 kph)
- 10SM
03:55
Overcast
43°F / 6°C 34°F / 1°C 71% 30.06 in
(1018 mb)
W 11.5 mph
(W 19 kph)
- 10SM
03:35
Overcast
43°F / 6°C 34°F / 1°C 71% 30.06 in
(1018 mb)
SSW 11.5 mph
(SSW 19 kph)
- 10SM
03:15
Partly Cloudy
43°F / 6°C 36°F / 2°C 76% 30.04 in
(1017 mb)
W 9.2 mph
(W 15 kph)
- 10SM
02:55
Clear
43°F / 6°C 36°F / 2°C 76% 30.04 in
(1017 mb)
W 11.5 mph
(W 19 kph)
- 10SM
02:35
Clear
45°F / 7°C 34°F / 1°C 66% 30.01 in
(1016 mb)
W 13.8 mph
(W 22 kph)
- 10SM
01:55
Clear
45°F / 7°C 34°F / 1°C 66% 29.98 in
(1015 mb)
W 19.6 mph
(W 32 kph)
- 10SM
01:35
Clear
46°F / 8°C 36°F / 2°C 66% 30.01 in
(1016 mb)
W 15 mph
(W 24 kph)
- 10SM
01:15
Partly Cloudy
46°F / 8°C 37°F / 3°C 71% 30.01 in
(1016 mb)
W 15 mph
(W 24 kph)
- 10SM
00:55
Mostly Cloudy
48°F / 9°C 41°F / 5°C 76% 30.01 in
(1016 mb)
SSW 11.5 mph
(SSW 19 kph)
- 10SM
00:35
Overcast
48°F / 9°C 41°F / 5°C 76% 29.98 in
(1015 mb)
W 12.7 mph
(W 20 kph)
- 10SM
00:15
Overcast
48°F / 9°C 41°F / 5°C 76% 29.98 in
(1015 mb)
W 10.4 mph
(W 17 kph)
- 10SM
Time Weather Temperature Dewpoint Humidity Pressure Winds Precip Visibility


Weather for websites

WeatherForYou.com, LLC is not responsible for any damages or problems caused by this service. Current weather conditions are obtained from the closest station including government and personal stations which may have varying degrees of accuracy. Weather forecasts are derived from the NOAA NDFD. Like all things, this site belongs to Jesus Christ... He just trusts us to maintain it. If you have any questions or comments email webmaster@weatherforyou.com

Copyright © 2015, WeatherForYou.com LLC. All rights reserved.